TimeAEST,TemperatureF,Dew PointF,Humidity,Sea Level PressureIn,VisibilityMPH,Wind Direction,Wind SpeedMPH,Gust SpeedMPH,PrecipitationIn,Events,Conditions,WindDirDegrees,DateUTC
12:00 AM,80,77,89,29.69,,Calm,Calm,,,,,,2013-03-01 14:00:00
12:00 AM,80.6,77.0,89,29.68,6.2,Calm,Calm,-,N/A,,Scattered Clouds,0,2013-03-01 14:00:00
12:30 AM,78.8,77.0,94,29.65,6.2,West,4.6,-,N/A,,Scattered Clouds,280,2013-03-01 14:30:00
1:00 AM,79,77,90,29.67,,WNW,3.5,,,,,300,2013-03-01 15:00:00
1:00 AM,78.8,77.0,94,29.65,6.2,WNW,3.5,-,N/A,,Scattered Clouds,300,2013-03-01 15:00:00
1:30 AM,78.8,77.0,94,29.62,6.2,SSE,5.8,-,N/A,,Scattered Clouds,160,2013-03-01 15:30:00
2:00 AM,78.8,77.0,94,29.62,6.2,SSW,4.6,-,N/A,,Scattered Clouds,200,2013-03-01 16:00:00
2:30 AM,78.8,77.0,94,29.62,6.2,WNW,2.3,-,N/A,,Partly Cloudy,290,2013-03-01 16:30:00
3:00 AM,78,76,93,29.62,,WNW,2.3,,,,,300,2013-03-01 17:00:00
3:00 AM,78.8,77.0,94,29.62,6.2,WNW,2.3,-,N/A,,Mostly Cloudy,300,2013-03-01 17:00:00
3:30 AM,77.0,77.0,100,29.62,6.2,Calm,Calm,-,N/A,,Mostly Cloudy,0,2013-03-01 17:30:00
4:00 AM,78,76,94,29.62,,Calm,Calm,,,,,,2013-03-01 18:00:00
4:00 AM,78.8,77.0,94,29.59,6.2,Calm,Calm,-,N/A,,Mostly Cloudy,0,2013-03-01 18:00:00
4:30 AM,77.0,75.2,94,29.62,6.2,WNW,4.6,-,N/A,,Overcast,290,2013-03-01 18:30:00
5:00 AM,77.0,75.2,94,29.59,6.2,Calm,Calm,-,N/A,,Overcast,0,2013-03-01 19:00:00
5:30 AM,78.8,75.2,89,29.62,6.2,SSW,3.5,-,N/A,,Overcast,200,2013-03-01 19:30:00
6:00 AM,78,76,91,29.61,19,SSE,1.2,,,,Partly Cloudy,160,2013-03-01 20:00:00
6:00 AM,78.8,75.2,89,29.59,6.2,SSE,1.2,-,N/A,,Overcast,160,2013-03-01 20:00:00
6:30 AM,78.8,75.2,89,29.59,6.2,SSE,8.1,-,N/A,,Overcast,160,2013-03-01 20:30:00
7:00 AM,79,75,83,29.62,,South,8.1,,,,,170,2013-03-01 21:00:00
7:00 AM,78.8,75.2,89,29.59,6.2,South,8.1,-,N/A,,Overcast,170,2013-03-01 21:00:00
7:30 AM,78.8,77.0,94,29.59,6.2,WSW,1.2,-,N/A,,Overcast,250,2013-03-01 21:30:00
8:00 AM,80.6,75.2,84,29.62,6.2,WNW,4.6,-,N/A,,Overcast,290,2013-03-01 22:00:00
8:30 AM,80.6,77.0,89,29.62,6.2,NW,6.9,-,N/A,,Overcast,310,2013-03-01 22:30:00
9:00 AM,81,76,81,29.64,19,West,4.6,,,,Partly Cloudy,280,2013-03-01 23:00:00
9:00 AM,80.6,77.0,89,29.62,6.2,West,4.6,-,N/A,,Overcast,280,2013-03-01 23:00:00
9:30 AM,82.4,77.0,84,29.65,6.2,SSE,5.8,-,N/A,,Overcast,150,2013-03-01 23:30:00
10:00 AM,83,76,74,29.67,,East,5.8,,,,,80,2013-03-02 00:00:00
10:00 AM,82.4,77.0,84,29.65,6.2,East,5.8,-,N/A,,Overcast,80,2013-03-02 00:00:00
10:30 AM,84.2,77.0,79,29.65,6.2,Calm,Calm,-,N/A,,Overcast,0,2013-03-02 00:30:00
11:00 AM,86.0,77.0,74,29.62,6.2,NE,4.6,-,N/A,,Mostly Cloudy,50,2013-03-02 01:00:00
11:30 AM,86.0,78.8,79,29.62,6.2,North,8.1,-,N/A,,Mostly Cloudy,10,2013-03-02 01:30:00
12:00 PM,87,79,72,29.61,19,North,11.5,,,,Partly Cloudy,10,2013-03-02 02:00:00
12:00 PM,87.8,78.8,75,29.59,6.2,North,11.5,-,N/A,,Mostly Cloudy,10,2013-03-02 02:00:00
12:30 PM,86.0,78.8,79,29.59,6.2,North,13.8,-,N/A,,Overcast,360,2013-03-02 02:30:00
1:00 PM,86,79,75,29.60,,North,11.5,,,,,0,2013-03-02 03:00:00
1:00 PM,86.0,78.8,79,29.59,6.2,North,11.5,-,N/A,,Overcast,360,2013-03-02 03:00:00
1:30 PM,87.8,78.8,75,29.56,6.2,North,10.4,-,N/A,,Mostly Cloudy,10,2013-03-02 03:30:00
2:00 PM,87.8,78.8,75,29.56,6.2,North,9.2,-,N/A,,Overcast,350,2013-03-02 04:00:00
2:30 PM,86.0,78.8,79,29.53,6.2,North,8.1,-,N/A,,Overcast,10,2013-03-02 04:30:00
3:00 PM,86,78,70,29.55,19,NNE,6.9,,,,Partly Cloudy,20,2013-03-02 05:00:00
3:00 PM,86.0,77.0,74,29.53,6.2,NNE,6.9,-,N/A,,Mostly Cloudy,20,2013-03-02 05:00:00
3:30 PM,86.0,78.8,79,29.53,6.2,NNE,8.1,-,N/A,,Overcast,30,2013-03-02 05:30:00
4:00 PM,86,78,72,29.54,,NNE,4.6,,,,,20,2013-03-02 06:00:00
4:00 PM,86.0,78.8,79,29.53,6.2,NNE,4.6,-,N/A,,Overcast,20,2013-03-02 06:00:00
4:30 PM,86.0,78.8,79,29.50,6.2,NE,5.8,-,N/A,,Overcast,50,2013-03-02 06:30:00
5:00 PM,86.0,78.8,79,29.50,6.2,NE,4.6,-,N/A,,Overcast,40,2013-03-02 07:00:00
5:30 PM,86.0,78.8,79,29.53,6.2,NE,4.6,-,N/A,,Overcast,40,2013-03-02 07:30:00
6:00 PM,85,79,77,29.55,16,NNE,5.8,,,,Partly Cloudy,30,2013-03-02 08:00:00
6:00 PM,84.2,78.8,84,29.53,6.2,NNE,5.8,-,N/A,,Overcast,30,2013-03-02 08:00:00
6:31 PM,84.2,78.8,84,29.53,6.2,NNE,5.8,-,N/A,,Overcast,20,2013-03-02 08:31:00
7:00 PM,84,79,80,29.57,,NNE,4.6,,,,,20,2013-03-02 09:00:00
7:00 PM,84.2,78.8,84,29.56,6.2,NNE,4.6,-,N/A,,Overcast,20,2013-03-02 09:00:00
7:30 PM,84.2,78.8,84,29.56,6.2,NE,4.6,-,N/A,,Mostly Cloudy,50,2013-03-02 09:30:00
8:00 PM,84.2,80.6,89,29.56,6.2,Calm,Calm,-,N/A,,Mostly Cloudy,0,2013-03-02 10:00:00
8:30 PM,84.2,80.6,89,29.56,6.2,Calm,Calm,-,N/A,,Mostly Cloudy,0,2013-03-02 10:30:00
9:00 PM,84,80,83,29.60,16,North,4.6,,,,Overcast,0,2013-03-02 11:00:00
9:00 PM,84.2,80.6,89,29.59,6.2,North,4.6,-,N/A,,Mostly Cloudy,360,2013-03-02 11:00:00
9:30 PM,84.2,80.6,89,29.59,6.2,West,1.2,-,N/A,,Mostly Cloudy,260,2013-03-02 11:30:00
10:00 PM,83,80,88,29.61,,WNW,3.5,,,,,290,2013-03-02 12:00:00
10:00 PM,82.4,80.6,94,29.59,6.2,WNW,3.5,-,N/A,,Mostly Cloudy,290,2013-03-02 12:00:00
10:30 PM,82.4,78.8,89,29.59,6.2,WNW,4.6,-,N/A,,Mostly Cloudy,300,2013-03-02 12:30:00
11:00 PM,82.4,75.2,79,29.59,6.2,West,5.8,-,N/A,,Mostly Cloudy,270,2013-03-02 13:00:00
11:30 PM,82.4,75.2,79,29.56,6.2,West,6.9,-,N/A,,Mostly Cloudy,270,2013-03-02 13:30:00